Regional Weather Roundup
Issued by NWS

Home | Current Version | Previous Version | Graphics & Text | Print | Product List | Glossary On
Versions: 1 2 3 4 5 6 7 8 9 10 11 12 13 14 15 16 17 18 19 20 21 22 23 24 25 26 27 28 29 30 31
000
ASUS45 KBOU 300507
RWRCO

WEATHER ROUNDUP FOR COLORADO
NATIONAL WEATHER SERVICE DENVER/BOULDER CO
1100 PM MDT WED OCT 29 2014

NOTE: "FAIR" INDICATES FEW OR NO CLOUDS BELOW 12000 FEET WITH NO
SIGNIFICANT WEATHER AND/OR OBSTRUCTIONS TO VISIBILITY.

COZ001>005-013-030-031-300600-
...NORTHWEST COLORADO...

CITY           SKY/WX    TMP DP  RH WIND       PRES   REMARKS
CRAIG          CLEAR     29  22  75 SE3       30.33R
HAYDEN         CLEAR     36  19  51 CALM      30.33S
MEEKER         CLEAR     35  25  66 E6        30.35R WCI  30
MOUNT WERNER   NOT AVBL
STEAMBOAT SPGS CLEAR     38  21  51 E3        30.34R
WALDEN         PTCLDY    34  21  60 CALM      30.34R
$$

COZ006>008-011-300600-
...WEST CENTRAL VALLEYS...

CITY           SKY/WX    TMP DP  RH WIND       PRES   REMARKS
GRAND JUNCTION CLEAR     43  18  36 E5        30.29R
MONTROSE       CLEAR     40  22  48 SE7       30.36R
EAGLE          CLEAR     36  19  51 NE6       30.38R
RIFLE          CLEAR     42  20  41 CALM      30.33R
DELTA          CLEAR     45  18  34 NE8       30.33R
NUCLA          CLEAR     45  16  31 E9        30.37R
$$

COZ017>023-064>068-300600-
...SOUTHWEST COLORADO...

CITY           SKY/WX    TMP DP  RH WIND       PRES   REMARKS
DURANGO        CLEAR     37  21  52 CALM      30.32R
CORTEZ         CLEAR     35  18  49 NE7       30.32S WCI  29
PAGOSA SPRINGS CLEAR     36  20  51 CALM      30.38R
TELLURIDE      CLEAR     39  13  35 E7        30.47S
WOLF CREEK PAS CLEAR     34  12  40 SW6       30.54S WCI  29
$$

COZ009-010-012-014-032>034-037-058>063-300600-
...CENTRAL COLORADO...

CITY           SKY/WX    TMP DP  RH WIND       PRES   REMARKS
ASPEN          CLEAR     33  18  53 SW8       30.40R WCI  26
BUENA VISTA    CLEAR     47  10  23 N7        30.34R
COPPER MTN     CLEAR     34  14  44 W22       30.51S WCI  22
BERTHOUD PASS  FAIR      27  23  86 NW35G46   30.45S WCI   9
COTTONWOOD PAS CLEAR     45   5  19 CALM      30.40R
GUNNISON       CLEAR     36  12  38 N5        30.42R
KREMMLING      CLEAR     32  21  64 CALM        N/A
LEADVILLE      CLEAR     36  11  35 N10       30.44R
MONARCH PASS   CLEAR     32   9  37 W33       30.59F WCI  17
SALIDA         CLEAR     49  11  21 CALM      30.39S
SUNLIGHT       CLEAR     36  16  44 CALM      30.52S
WILKERSON PASS NOT AVBL
$$

COZ069>075-300600-
...SAN LUIS VALLEY/SANGRE DE CRISTO MOUNTAINS...

CITY           SKY/WX    TMP DP  RH WIND       PRES   REMARKS
ALAMOSA        PTCLDY    34  14  43 SE6       30.33R WCI  29
LA VETA PASS   CLEAR     41   9  26 S7        30.42R
SAGUACHE       PTCLDY    39  10  30 N9        30.36R
$$

COZ035-036-038>040-300600-
...NORTHERN COLORADO FRONT RANGE...

CITY           SKY/WX    TMP DP  RH WIND       PRES   REMARKS
DENVER INTL AP PTCLDY    48  21  34 VRB3      30.20R
DMNS CITY PARK   N/A     52  22  30 SE3G12    30.19S
AURORA         PTCLDY    52  19  27 SE8       30.22R
FRONT RANGE AP PTCLDY    50  23  34 S6        30.22R
ERIE MUNI ARPT PTCLDY    47  22  36 CALM      30.18R
BOULDER MUN AP PTCLDY    52  23  32 CALM      30.18R
CENTENNIAL     PTCLDY    46  23  40 S8        30.22R
BROOMFIELD     NOT AVBL
FORT COLLINS   CLEAR     48  25  40 N6        30.19R
LONGMONT       CLEAR     52  24  34 CALM      30.20R
$$

COZ041-046-047-076>085-087-088-300600-
...PIKES PEAK/PALMER DIVIDE AND SOUTHERN FOOTHILLS...

CITY           SKY/WX    TMP DP  RH WIND       PRES   REMARKS
COLO. SPRINGS  PTCLDY    46  20  35 SW3       30.25R
A. F. ACADEMY  CLEAR     39  19  44 N7        30.26R
ELLICOTT       PTCLDY    43  18  36 CALM      30.22R
FALCON         PTCLDY    46  17  31 N8        30.28R
FORT CARSON    CLEAR     46  20  35 NW12      30.22R
LIMON          CLEAR     34  20  56 N3        30.20S
MONUMENT HILL  PTCLDY    36  19  51 SE3       30.26R
TRINIDAD       CLEAR     50  16  25 W9        30.20R
$$

COZ042>045-048>051-090-091-300600-
...NORTHEAST COLORADO...

CITY           SKY/WX    TMP DP  RH WIND       PRES   REMARKS
GREELEY ARPT   PTCLDY    48  25  40 N17       30.18R
AKRON          PTCLDY    47  25  42 N12       30.16R
BURLINGTON     CLEAR     44  23  43 W9        30.14S
WRAY           CLEAR     49  23  36 NW9       30.12R
STERLING       CLEAR     46  30  53 CALM      30.14R
HOLYOKE        CLEAR     46  27  46 NW9       30.12R
FORT MORGAN    CLEAR     49  23  35 N14       30.17R
$$

COZ086-089-092>099-300600-
...SOUTHEAST COLORADO...

CITY           SKY/WX    TMP DP  RH WIND       PRES   REMARKS
PUEBLO         CLEAR     45  18  34 NW6       30.17R
LA JUNTA       CLEAR     44  24  45 N10       30.13R
LAMAR          CLEAR     41  26  55 CALM      30.10R
SPRINGFIELD      N/A     43  31  62 SW3       30.12R
$$



USA.gov is the U.S. government's official web portal to all federal, state and local government web resources and services.